Home   Weather   Whitstable   Past weeks
Flag for United Kingdom

Past Weather in Whitstable, England, United Kingdom — Yesterday and Last 2 Weeks

Now
38 °F

Chilly.


Feels Like: 34 °F
Forecast: 51 / 36 °F
Wind: 6 mph from Northeast

Location: Manston

Current Time: Apr 1, 2020 at 3:16:37 am

Latest Report: Apr 1, 2020 at 2:00 am


Visibility: 19 mi

Pressure: 30.34 "Hg

Humidity: 75%

Dew Point: 31 °F

Location of WhitstableLocation

Past Weather in Whitstable — Graph

°F

Whitstable Temperature Yesterday

Maximum temperature yesterday: 48 °F (at 1:00 pm)
Minimum temperature yesterday: 39 °F (at 10:00 pm)
Average temperature yesterday: 43 °F

High & Low Weather Summary for the Past Weeks

 TemperatureHumidityPressure
High60 °F (Mar 18, 2:00 pm)98% (Mar 19, 5:00 am)30.65 "Hg (Mar 19, 5:00 am)
Low37 °F (Mar 24, 5:00 am)45% (Mar 25, 2:00 pm)30.17 "Hg (Mar 27, 4:00 pm)
Average44 °F72%30.34 "Hg
* Reported Mar 17 1:00 am — Apr 1 2:00 am, Whitstable. Weather by CustomWeather, © 2020

Note: Actual official high and low records may vary slightly from our data, if they occured in-between our weather recording intervals... More about our weather records

Whitstable Weather History for the Previous 24 Hours

Scroll right to see more
 ConditionsComfort  
Time TempWeatherWind HumidityBarometerVisibility
2:00 am
Wed, Apr 1
38 °FChilly.6 mph75%30.34 "Hg19 mi
1:00 am39 °FChilly.8 mph75%30.36 "Hg19 mi
12:00 am40 °FChilly.9 mph75%30.38 "Hg19 mi
11:00 pm
Tue, Mar 31
39 °FChilly.8 mph75%30.39 "Hg19 mi
10:00 pm39 °FChilly.7 mph74%30.40 "Hg16 mi
9:00 pm39 °FChilly.8 mph72%30.41 "Hg22 mi
8:00 pm40 °FQuite cool.13 mph68%30.41 "Hg25 mi
7:00 pm42 °FQuite cool.15 mph65%30.42 "Hg19 mi
6:00 pm43 °FQuite cool.14 mph60%30.42 "Hg25 mi
5:00 pm45 °FQuite cool.13 mph62%30.43 "Hg22 mi
4:00 pm46 °FCool.13 mph57%30.44 "Hg22 mi
3:00 pm46 °FCool.13 mph53%30.46 "Hg31 mi
2:00 pm46 °FCool.13 mph51%30.47 "Hg22 mi
1:00 pm48 °FCool.14 mph62%30.47 "Hg16 mi
12:00 pm47 °FCool.14 mph66%30.47 "Hg17 mi
11:00 am47 °FCool.15 mph65%30.48 "Hg17 mi
10:00 am45 °FCool.16 mph69%30.48 "Hg12 mi
9:00 am45 °FCool.15 mph75%30.47 "Hg19 mi
8:00 am43 °FQuite cool.12 mph78%30.45 "Hg16 mi
7:00 am41 °FQuite cool.10 mph79%30.44 "Hg19 mi
6:00 am41 °FQuite cool.9 mph84%30.43 "Hg16 mi
5:00 am42 °FLots of rain. Overcast.13 mph86%30.42 "Hg4 mi
4:00 am42 °FQuite cool.13 mph78%30.42 "Hg17 mi
3:00 am42 °FQuite cool.15 mph74%30.42 "Hg19 mi
Weather by CustomWeather, © 2020

See weather overview

Advertising